Location: Cerezo de Arriba
(41.2389°N, 3.5585°W)
Time: 04:36:54
(UTC+00:00)

Cosmos 1151 Rocket - Pass Details

Date: 19 May 2025
Orbit: 586 x 606 km, 82.5° (Epoch: 23 June)

Event Time Altitude Azimuth Distance (km) Brightness Sun altitude
Exits shadow 23:56:15 41° 1° (N) 852 4.1 -28.7°
Drops below altitude 10° 23:59:05 10° 6° (N) 1,918 6.5 -28.7°
Sets 00:01:18 0° 8° (N) 2,823 7.6 -28.7°
